"Pseudo-MPEC" for NMP0002

Created 2023 Apr 5 12:22:07 UT using Find_Orb

Click here for an explanation of pseudo-MPECs

 
 Astrometry: 
     NMP0002*KB2023 04 01GZ*9G1mx!8Astrometry7boLJ^`r89G[i4:w'%6O`7cEPdVDb16MX77
     NMP0002 KB2023 04 01+Lwifredacted;I\Yp=H^W@\6Iw'2vWv,U_=l9Dw?uA`x#sclickX77
     NMP0002 KB2023 04 01ntB-+vMA2vmbn$8ZQqD;Wdjx$hUw])sDhere4oq0[G(NcwSUwg-oX77
     NMP0002 KB2023 04 02GQ0$oUWsCfqZpj$^`OnuvwJ9NWoKDV@k-+I#`P)mGd=lBU,rJ'H!X77
     NMP0002 KB2023 04 02QbO.1T,gOQNZ!Qt[\WN)uEO![6%c8Zn/We=cRlo'p2Qn2ZR-%'KZX77
     NMP0002 KB2023 04 02c;_T?t.(QNFoldforasZexplanationNMev_E(m%0r_MhySB'*GYX77

Station data:
(X77) Centro Astron. Nevoeiro, Antonio Olinto  (S25.908602 W50.075250)
   Brazil.

Orbital elements:  NMP0002
   Perihelion 2023 Apr 1.67183 TT = 16:07:26 (JD 2460036.17183)
Epoch 2023 Apr  2.0 TT = JDT 2460036.5   Earth MOID: 0.5196      AutoNEOCP
M   0.16271967                      (J2000 ecliptic)
n   0.49583831     Peri.  194.70938
a   1.58091793     Node     5.90377
e   0.0410768      Incl.   28.41357
P   1.99/726.03d   H   17.88    G   0.15   q 1.51597879  Q 1.64585706
4 of 6 observations 2023 Apr. 1-2 (22.1 hr); mean residual 1".39
Residuals in arcseconds: 
230401 X77( 8.6-  7.2-)   230401 X77( 8.6+  6.5+)   230402 X77  .76-  .14+    
230401 X77  .03+  .00     230402 X77  2.3-  .21-    230402 X77  3.1+  .08+    

Ephemerides (geocentric):
Date (UTC) HH   RA             Dec           delta  r     elong  mag
---- --------  ------------   ------------  ------ ------ -----  ---
2023 04 05 12  13 22 49.865   -32 30 05.65  .55605 1.5160 152.7 18.5
2023 04 05 13  13 22 41.990   -32 31 26.65  .55601 1.5160 152.7 18.5
2023 04 05 14  13 22 34.109   -32 32 47.57  .55597 1.5160 152.7 18.5
2023 04 05 15  13 22 26.222   -32 34 08.41  .55593 1.5160 152.7 18.5
2023 04 05 16  13 22 18.329   -32 35 29.18  .55590 1.5160 152.7 18.5
2023 04 05 17  13 22 10.430   -32 36 49.86  .55586 1.5160 152.8 18.5
2023 04 05 18  13 22 02.524   -32 38 10.46  .55582 1.5160 152.8 18.5
2023 04 05 19  13 21 54.612   -32 39 30.98  .55579 1.5160 152.8 18.5
2023 04 05 20  13 21 46.694   -32 40 51.43  .55575 1.5160 152.8 18.5
2023 04 05 21  13 21 38.770   -32 42 11.79  .55571 1.5160 152.8 18.5
2023 04 05 22  13 21 30.840   -32 43 32.07  .55568 1.5160 152.8 18.5
2023 04 05 23  13 21 22.903   -32 44 52.27  .55565 1.5160 152.8 18.5
2023 04 06 00  13 21 14.961   -32 46 12.39  .55561 1.5160 152.8 18.5
2023 04 06 01  13 21 07.013   -32 47 32.42  .55558 1.5160 152.8 18.5
2023 04 06 02  13 20 59.058   -32 48 52.38  .55555 1.5160 152.8 18.5
2023 04 06 03  13 20 51.098   -32 50 12.25  .55551 1.5160 152.8 18.5
2023 04 06 04  13 20 43.132   -32 51 32.04  .55548 1.5160 152.8 18.5
2023 04 06 05  13 20 35.159   -32 52 51.75  .55545 1.5160 152.8 18.5
2023 04 06 06  13 20 27.181   -32 54 11.37  .55542 1.5160 152.9 18.5
2023 04 06 07  13 20 19.197   -32 55 30.92  .55539 1.5160 152.9 18.5
2023 04 06 08  13 20 11.207   -32 56 50.37  .55536 1.5160 152.9 18.5
2023 04 06 09  13 20 03.211   -32 58 09.75  .55533 1.5160 152.9 18.5
2023 04 06 10  13 19 55.210   -32 59 29.04  .55530 1.5160 152.9 18.5
2023 04 06 11  13 19 47.202   -33 00 48.25  .55527 1.5160 152.9 18.5
2023 04 06 12  13 19 39.189   -33 02 07.37  .55524 1.5160 152.9 18.5
2023 04 06 13  13 19 31.170   -33 03 26.41  .55521 1.5160 152.9 18.5
2023 04 06 14  13 19 23.145   -33 04 45.37  .55518 1.5160 152.9 18.5
2023 04 06 15  13 19 15.115   -33 06 04.24  .55516 1.5160 152.9 18.5
2023 04 06 16  13 19 07.079   -33 07 23.02  .55513 1.5160 152.9 18.5
2023 04 06 17  13 18 59.037   -33 08 41.72  .55510 1.5160 152.9 18.5
2023 04 06 18  13 18 50.990   -33 10 00.34  .55508 1.5160 152.9 18.5
2023 04 06 19  13 18 42.937   -33 11 18.87  .55505 1.5160 152.9 18.5
2023 04 06 20  13 18 34.878   -33 12 37.31  .55503 1.5160 152.9 18.5
2023 04 06 21  13 18 26.814   -33 13 55.67  .55500 1.5161 152.9 18.5
2023 04 06 22  13 18 18.744   -33 15 13.94  .55498 1.5161 152.9 18.5
2023 04 06 23  13 18 10.669   -33 16 32.13  .55496 1.5161 152.9 18.5
2023 04 07 00  13 18 02.588   -33 17 50.22  .55493 1.5161 152.9 18.5
2023 04 07 01  13 17 54.502   -33 19 08.24  .55491 1.5161 152.9 18.5
2023 04 07 02  13 17 46.410   -33 20 26.16  .55489 1.5161 153.0 18.5
2023 04 07 03  13 17 38.313   -33 21 44.00  .55487 1.5161 153.0 18.5
2023 04 07 04  13 17 30.210   -33 23 01.75  .55485 1.5161 153.0 18.5
2023 04 07 05  13 17 22.102   -33 24 19.41  .55483 1.5161 153.0 18.5
2023 04 07 06  13 17 13.989   -33 25 36.98  .55481 1.5161 153.0 18.5
2023 04 07 07  13 17 05.870   -33 26 54.47  .55479 1.5161 153.0 18.5
2023 04 07 08  13 16 57.746   -33 28 11.86  .55477 1.5161 153.0 18.5
2023 04 07 09  13 16 49.617   -33 29 29.17  .55475 1.5161 153.0 18.5
2023 04 07 10  13 16 41.482   -33 30 46.39  .55473 1.5161 153.0 18.5
2023 04 07 11  13 16 33.343   -33 32 03.52  .55471 1.5161 153.0 18.5